[[{"header":{"parameterUnit":"m.s-1","parameterCategory":1,"la1":30.2992,"la2":30.254,"lo1":-89.0895,"lo2":-89.0443,"dy":0.0025,"dx":0.0025,"nx":19,"ny":19,"refTime":"2026-03-20T09:00:00:Z","depth":0,"parameterNumber":2,"parameterNumberName":"U-component_of_WINDS"},"data":[0,0,0,2.6216,2.6218,2.6331,2.6332,2.6478,2.6479,0,0,0,0,0,0,0,0,0,0,0,2.6187,2.6188,2.6215,2.6218,2.6331,2.6332,2.6477,2.6479,0,0,0,0,0,0,0,0,0,0,0,2.6186,2.6187,2.6189,2.6219,2.6331,2.6332,2.6477,2.639,0,0,0,0,0,0,0,0,0,0,2.628,2.6259,2.6187,2.6189,2.622,2.6331,2.6332,2.6386,2.6396,2.6428,0,2.6461,0,2.6472,2.6489,2.649,0,0,0,2.6214,2.6251,2.6277,2.6189,2.6221,2.6331,2.6279,2.6392,2.6402,2.6441,2.6463,2.6468,2.6475,2.649,2.6491,2.6694,2.6695,0,0,2.6208,2.6209,2.627,2.6285,2.6271,2.6276,2.6283,2.6398,2.6421,2.6463,2.6471,2.6477,2.6491,2.6492,2.6693,2.6694,0,0,0,2.6193,2.6204,2.6228,2.6279,2.6299,2.6279,2.6287,2.6416,2.6424,2.6473,2.6479,2.6492,2.6494,2.6692,2.6693,2.6748,0,0,0,2.6189,2.6196,2.6226,2.6227,2.6297,2.636,2.6302,2.6416,2.6429,2.6478,2.6492,2.6495,2.669,2.6692,2.6744,2.6773,0,0,0,2.6178,2.6194,2.6212,2.6227,2.6276,2.6358,2.6372,2.6418,2.6433,2.649,2.6496,2.669,2.6692,2.674,2.6767,2.6823,0,0,0,2.6165,2.6261,2.6213,2.6322,2.6275,2.6392,2.6371,2.6459,2.6515,2.6493,2.6691,2.6693,2.6739,2.6763,2.6819,2.6869,2.6891,0,0,2.6285,2.6275,2.6339,2.63,2.6426,2.6375,2.6508,2.6558,2.6563,2.6649,2.6654,2.6745,2.6766,2.6822,2.7018,2.7035,0,0,0,2.6377,2.6422,2.6455,2.6509,2.6551,2.6587,2.6617,2.6635,2.6708,2.6608,2.6783,2.6795,2.6828,2.6851,2.6866,2.6892,2.6705,2.6705,2.6705,2.6546,2.6547,2.6651,2.6665,2.6717,2.6746,2.6786,2.6815,2.6802,2.6842,2.6867,2.6986,2.7014,2.7025,2.7052,2.6896,2.6896,2.6897,2.6897,2.672,2.6782,2.6761,2.6853,2.6852,2.6929,2.6959,2.6947,2.7015,2.6968,2.6997,2.6942,2.7044,2.7067,2.6901,2.69,2.69,2.6899,2.6899,2.6828,2.6858,2.6879,2.6954,2.7011,2.7021,2.7088,2.7085,2.7083,2.7112,2.7135,2.7134,2.7129,2.7124,2.7124,2.7125,2.7125,2.7125,2.7125,2.693,2.6953,2.701,2.706,2.7092,2.7134,2.7162,2.7193,2.7225,2.7218,2.7218,2.7197,2.7055,2.7017,2.7132,2.7131,2.713,2.7129,2.7129,2.71,2.7061,2.715,2.7182,2.7238,2.7292,2.7289,2.735,2.7375,2.7407,2.738,2.7277,2.7265,2.7254,2.7222,2.7383,2.7383,2.7383,2.7383,2.7189,2.7183,2.7271,2.7322,2.7371,2.7376,2.7471,2.7493,2.7509,2.7523,2.75,2.7459,2.7447,2.7442,2.7426,2.7396,2.7598,2.7598,2.7598,2.7291,2.729,2.7373,2.7389,2.7432,2.7468,2.7556,2.7612,2.7622,2.7607,2.7533,2.7524,2.7458,2.7437,2.7417,2.7393,2.7338,0,0]},{"header":{"parameterUnit":"m.s-1","parameterCategory":1,"la1":30.2992,"la2":30.254,"lo1":-89.0895,"lo2":-89.0443,"dy":0.0025,"dx":0.0025,"nx":19,"ny":19,"refTime":"2026-03-20T09:00:00:Z","depth":0,"parameterNumber":3,"parameterNumberName":"V-component_of_WINDS"},"data":[0,0,0,1.2333,1.2336,1.2495,1.2495,1.2693,1.2694,0,0,0,0,0,0,0,0,0,0,0,1.2284,1.2286,1.2332,1.2336,1.2495,1.2495,1.2692,1.2694,0,0,0,0,0,0,0,0,0,0,0,1.2284,1.2285,1.2287,1.2337,1.2495,1.2495,1.2692,1.2574,0,0,0,0,0,0,0,0,0,0,1.2421,1.2375,1.2285,1.2287,1.2338,1.2494,1.2496,1.2568,1.2581,1.2619,0,1.2654,0,1.2677,1.2707,1.2708,0,0,0,1.2337,1.2364,1.2408,1.2287,1.2339,1.2494,1.2423,1.2575,1.259,1.2636,1.2656,1.2664,1.268,1.2708,1.2709,1.2926,1.2927,0,0,1.2328,1.2312,1.2398,1.2418,1.2395,1.2418,1.2428,1.2584,1.2605,1.2657,1.2669,1.2684,1.271,1.2711,1.2925,1.2926,0,0,0,1.2303,1.2306,1.2346,1.241,1.2439,1.2423,1.2435,1.2598,1.2613,1.2671,1.2686,1.2711,1.2713,1.2924,1.2925,1.2957,0,0,0,1.2298,1.2291,1.2342,1.2334,1.2436,1.2521,1.2445,1.2602,1.262,1.2685,1.2711,1.2715,1.2923,1.2925,1.2954,1.2975,0,0,0,1.2274,1.2288,1.2311,1.2333,1.24,1.2519,1.2542,1.2606,1.2629,1.2708,1.2716,1.2922,1.2924,1.2951,1.2971,1.3026,0,0,0,1.2245,1.2338,1.2311,1.242,1.2399,1.2537,1.2541,1.2646,1.2717,1.2712,1.2923,1.2925,1.295,1.2968,1.3023,1.307,1.3089,0,0,1.2353,1.235,1.2415,1.2396,1.2535,1.2515,1.2658,1.2739,1.2761,1.2869,1.2875,1.2955,1.297,1.3026,1.3196,1.321,0,0,0,1.2444,1.2491,1.2531,1.2598,1.2662,1.2717,1.2778,1.2807,1.2899,1.2814,1.2991,1.3,1.3034,1.3057,1.3069,1.3098,1.2935,1.2935,1.2935,1.2574,1.2596,1.2705,1.2746,1.2811,1.287,1.2924,1.2974,1.2979,1.3019,1.3052,1.3153,1.3179,1.3189,1.3218,1.3079,1.3079,1.3079,1.3079,1.2733,1.2803,1.2804,1.291,1.2933,1.3021,1.3081,1.3081,1.3165,1.3131,1.3161,1.3122,1.3204,1.3231,1.3082,1.3081,1.3081,1.3081,1.308,1.2821,1.2858,1.2892,1.2989,1.306,1.3098,1.3178,1.3196,1.3212,1.3242,1.3277,1.3277,1.3278,1.3258,1.3258,1.3258,1.3259,1.3259,1.3259,1.2899,1.2936,1.3002,1.3075,1.3119,1.3178,1.3236,1.3279,1.3331,1.3337,1.3337,1.3336,1.3208,1.3175,1.3265,1.3264,1.3263,1.3262,1.3262,1.3053,1.302,1.3123,1.3166,1.3251,1.332,1.334,1.3425,1.3463,1.3501,1.3493,1.3395,1.3394,1.3384,1.3357,1.3489,1.3489,1.3489,1.3489,1.3127,1.3127,1.3234,1.3302,1.3371,1.3398,1.351,1.3555,1.3596,1.362,1.3603,1.3568,1.3557,1.3562,1.3549,1.3524,1.3695,1.3695,1.3695,1.3222,1.3229,1.3323,1.3362,1.3429,1.3485,1.3591,1.3666,1.3706,1.3704,1.3638,1.363,1.3574,1.3554,1.3553,1.3531,1.3486,0,0]}]]